This demonstration page uses our WeatherBlox Daily Observations layout. Learn more.

Left ArrowRight Arrow

Hourly Observations for September 3, 2016

Temp ( °F °C ) Dew Point ( °F °C ) Humidity (%) Winds ( mph kmh ) Pressure ( in mb ) Visibility ( mi km ) Precip ( " mm )
12:51 am 00:51 Clear 79 26.1 59 15 50 50 ESE 9 15 29.77 1008 10 16.0934 0 0
1:51 am 01:51 Clear 79 26.1 59 15 50 50 ESE 10 17 29.77 1008 10 16.0934 0 0
2:51 am 02:51 Clear 76 24.4 60 15.6 58 58 SE 9 15 29.77 1008 10 16.0934 0 0
3:51 am 03:51 Clear 74 23.3 60 15.6 62 62 SSE 8 13 29.78 1008 10 16.0934 0 0
4:51 am 04:51 Mostly Clear 73 22.8 60 15.6 64 64 SSE 9 15 29.78 1009 10 16.0934 0 0
5:51 am 05:51 Mostly Cloudy 72 22.2 60 15.6 66 66 SSE 7 11 29.8 1009 10 16.0934 0 0
6:51 am 06:51 Sunny 75 23.9 60 15.6 60 60 SSE 9 15 29.81 1010 10 16.0934 0 0
7:51 am 07:51 Mostly Sunny 78 25.6 60 15.6 54 54 SSE 8 13 29.83 1010 10 16.0934 0 0
8:51 am 08:51 Partly Cloudy 84 28.9 60 15.6 44 44 E 7 11 29.83 1010 10 16.0934 0 0
9:51 am 09:51 Sunny 87 30.6 59 15 39 39 VRB 6 9 29.82 1010 10 16.0934 0 0
10:51 am 10:51 Sunny 89 31.7 59 15 36 36 S 9 15 29.8 1009 10 16.0934 0 0
11:51 am 11:51 Sunny 92 33.3 57 13.9 31 31 SSE 9 15 29.77 1008 10 16.0934 0 0
12:51 pm 12:51 Mostly Sunny 94 34.4 54 12.2 26 26 S 6 9 29.72 1007 10 16.0934 0 0
1:51 pm 13:51 Mostly Sunny 96 35.6 53 11.7 23 23 S 7 11 29.69 1005 10 16.0934 0 0
2:51 pm 14:51 Partly Cloudy 99 37.2 49 9.4 18 18 S 10 17 29.65 1004 10 16.0934 0 0
3:51 pm 15:51 Mostly Sunny 99 37.2 51 10.6 20 20 SSE 7 11 29.63 1003 10 16.0934 0 0
4:51 pm 16:51 Mostly Sunny 97 36.1 50 10 20 20 VRB 6 9 29.62 1003 10 16.0934 0 0
5:51 pm 17:51 Sunny 96 35.6 50 10 21 21 SW 10 17 29.61 1003 10 16.0934 0 0
6:51 pm 18:51 Clear 93 33.9 50 10 23 23 SW 6 9 29.61 1003 10 16.0934 0 0
7:51 pm 19:51 Partly Cloudy 89 31.7 50 10 26 26 W 6 9 29.62 1003 10 16.0934 0 0
8:51 pm 20:51 Clear 86 30 49 9.4 28 28 W 7 11 29.64 1004 10 16.0934 0 0
9:51 pm 21:51 Clear 83 28.3 49 9.4 31 31 NW 7 11 29.65 1004 10 16.0934 0 0
10:51 pm 22:51 Mostly Cloudy 85 29.4 44 6.7 24 24 NW 8 13 29.65 1004 10 16.0934 0 0
11:51 pm 23:51 Mostly Clear 82 27.8 43 6.1 25 25 NNW 8 13 29.65 1004 10 16.0934 0 0

Powered by AerisWeather